This demonstration page uses our WeatherBlox Daily Observations layout. Learn more.

Left ArrowRight Arrow

Hourly Observations for July 10, 2021

Temp ( °F °C ) Dew Point ( °F °C ) Humidity (%) Winds ( mph kmh ) Pressure ( in mb ) Visibility ( mi km ) Precip ( " mm )
12:53 am 00:53 Clear 78 25.6 65 18.3 64 64 ESE 10 17 29.90 1012 10 16 0.00 0.00
1:53 am 01:53 Clear 77 25 65 18.3 66 66 SE 10 17 29.89 1012 10 16 0.00 0.00
2:53 am 02:53 Clear 75 23.9 66 18.9 74 74 SE 9 15 29.88 1012 10 16 0.00 0.00
3:53 am 03:53 Clear 73 22.8 66 18.9 79 79 SE 7 11 29.87 1012 10 16 0.00 0.00
4:53 am 04:53 Clear 72 22.2 67 19.4 84 84 ESE 6 9 29.87 1012 10 16 0.00 0.00
5:53 am 05:53 Clear 71 21.7 67 19.4 87 87 E 6 9 29.89 1012 10 16 0.00 0.00
6:53 am 06:53 Clear 70 21.1 67 19.4 90 90 SE 6 9 29.89 1012 10 16 0.00 0.00
7:53 am 07:53 Sunny 72 22.2 67 19.4 84 84 SE 9 15 29.89 1012 10 16 0.00 0.00
8:53 am 08:53 Sunny 75 23.9 68 20 79 79 SE 8 13 29.92 1013 10 16 0.00 0.00
9:53 am 09:53 Mostly Cloudy 78 25.6 68 20 71 71 SE 10 17 29.93 1013 10 16 0.00 0.00
10:12 am 10:12 Partly Cloudy 78 25.6 67 19.4 69 69 SE 6 9 29.90 1013 10 16 0.00 0.00
10:20 am 10:20 Mostly Cloudy 78 25.6 68 20 71 71 SSE 9 15 29.90 1013 10 16 0.00 0.00
10:51 am 10:51 Partly Cloudy 79 26 66 19 65 65 ESE 9 15 29.90 1013 10 16 0.00 0.00
10:53 am 10:53 Partly Cloudy 79 26.1 67 19.4 67 67 SE 8 13 29.93 1014 10 16 0.00 0.00
11:53 am 11:53 Mostly Sunny 82 27.8 67 19.4 60 60 ESE 10 17 29.92 1013 10 16 0.00 0.00
12:53 pm 12:53 Sunny 85 29.4 66 18.9 53 53 ESE 12 19 29.89 1012 10 16 0.00 0.00
1:53 pm 13:53 Mostly Sunny 88 31.1 66 18.9 48 48 E 8 13 29.88 1012 10 16 0.00 0.00
2:53 pm 14:53 Mostly Cloudy 89 31.7 66 18.9 47 47 ESE 13 20 29.87 1012 10 16 0.00 0.00
3:53 pm 15:53 Partly Cloudy 90 32.2 66 18.9 45 45 SE 10 17 29.85 1011 10 16 0.00 0.00
4:53 pm 16:53 Mostly Sunny 92 33.3 66 18.9 43 43 SE 16 26 29.83 1010 10 16 0.00 0.00
5:53 pm 17:53 Sunny 92 33.3 65 18.3 41 41 SE 12 19 29.82 1010 10 16 0.00 0.00
6:53 pm 18:53 Sunny 90 32.2 64 17.8 42 42 ESE 15 24 29.80 1009 10 16 0.00 0.00
7:53 pm 19:53 Sunny 89 31.7 64 17.8 43 43 ESE 17 28 29.82 1010 10 16 0.00 0.00
8:53 pm 20:53 Sunny 87 30.6 63 17.2 45 45 SE 13 20 29.83 1010 10 16 0.00 0.00
9:53 pm 21:53 Clear 85 29.4 63 17.2 48 48 ESE 7 11 29.85 1011 10 16 0.00 0.00
10:53 pm 22:53 Clear 83 28.3 65 18.3 55 55 SE 8 13 29.87 1012 10 16 0.00 0.00

Powered by AerisWeather